TimeSAST,TemperatureF,Dew PointF,Humidity,Sea Level PressureIn,VisibilityMPH,Wind Direction,Wind SpeedMPH,Gust SpeedMPH,PrecipitationIn,Events,Conditions,WindDirDegrees,DateUTC
12:00 AM,44.6,39.2,81,30.18,-9999.0,NNW,2.3,-,N/A,,Clear,330,2013-09-11 22:00:00
1:00 AM,44.6,39.2,81,30.18,-9999.0,NNW,3.5,-,N/A,,Clear,330,2013-09-11 23:00:00
2:00 AM,44,39,77,30.18,19,NNW,2.3,,,,,330,2013-09-12 00:00:00
2:00 AM,44.6,39.2,81,30.15,-9999.0,NNW,3.5,-,N/A,,Clear,330,2013-09-12 00:00:00
3:00 AM,42.8,39.2,87,30.12,-9999.0,North,2.3,-,N/A,,Clear,350,2013-09-12 01:00:00
4:00 AM,42.8,39.2,87,30.12,-9999.0,North,2.3,-,N/A,,Clear,350,2013-09-12 02:00:00
5:00 AM,42,37,76,30.14,12,NNE,3.5,,,,,20,2013-09-12 03:00:00
5:00 AM,42.8,37.4,81,30.09,-9999.0,NNE,3.5,-,N/A,,Clear,30,2013-09-12 03:00:00
6:00 AM,42.8,35.6,76,30.09,-9999.0,NNE,4.6,-,N/A,,Clear,30,2013-09-12 04:00:00
7:00 AM,41.0,35.6,81,30.09,-9999.0,NNW,4.6,-,N/A,,Clear,340,2013-09-12 05:00:00
8:00 AM,49,40,61,30.12,12,,1.2,,,,,,2013-09-12 06:00:00
8:00 AM,50.0,41.0,71,30.09,-9999.0,Calm,Calm,-,N/A,,Clear,0,2013-09-12 06:00:00
10:00 AM,57.2,42.8,59,30.09,-9999.0,SE,6.9,-,N/A,,Clear,140,2013-09-12 08:00:00
11:00 AM,60,43,42,30.07,12,SE,10.4,,,,Scattered Clouds,130,2013-09-12 09:00:00
11:00 AM,60.8,44.6,55,30.06,6.2,SE,10.4,-,N/A,,Partly Cloudy,130,2013-09-12 09:00:00
12:00 PM,60.8,42.8,52,30.04,6.2,SE,10.4,-,N/A,,Partly Cloudy,140,2013-09-12 10:00:00
1:00 PM,60.8,44.6,55,30.01,6.2,SE,11.5,-,N/A,,Partly Cloudy,140,2013-09-12 11:00:00
2:00 PM,61,46,48,30.01,12,SE,10.4,,,,Scattered Clouds,140,2013-09-12 12:00:00
2:00 PM,60.8,46.4,59,29.98,6.2,SE,10.4,-,N/A,,Partly Cloudy,140,2013-09-12 12:00:00
3:00 PM,60.8,46.4,59,29.98,6.2,ESE,9.2,-,N/A,,Partly Cloudy,120,2013-09-12 13:00:00
4:00 PM,60.8,48.2,63,29.98,6.2,SE,11.5,-,N/A,,Partly Cloudy,140,2013-09-12 14:00:00
5:00 PM,59,46,52,29.98,12,ESE,9.2,,,,Scattered Clouds,110,2013-09-12 15:00:00
5:00 PM,59.0,46.4,63,29.98,6.2,ESE,9.2,-,N/A,,Partly Cloudy,110,2013-09-12 15:00:00
6:00 PM,57.2,46.4,67,29.98,6.2,ESE,6.9,-,N/A,,Partly Cloudy,110,2013-09-12 16:00:00
7:00 PM,55.4,44.6,67,29.98,-9999.0,East,4.6,-,N/A,,Clear,100,2013-09-12 17:00:00
8:00 PM,53,45,66,30.00,12,ENE,3.5,,,,,70,2013-09-12 18:00:00
8:00 PM,53.6,44.6,72,29.98,-9999.0,ENE,3.5,-,N/A,,Clear,70,2013-09-12 18:00:00
9:00 PM,48.2,42.8,82,29.98,-9999.0,North,5.8,-,N/A,,Clear,10,2013-09-12 19:00:00
10:00 PM,46.4,42.8,87,29.98,-9999.0,NNW,3.5,-,N/A,,Clear,340,2013-09-12 20:00:00
11:00 PM,46.4,41.0,81,29.98,-9999.0,NNW,3.5,-,N/A,,Clear,340,2013-09-12 21:00:00